Showing default

COSMOS 2459 (GLONASS), 36400

Orbit data source: Space-Track

COSMOS 2459 (GLONASS), 36400 is a Commonwealth of Independent States-origin payload satellite in MEO that was launched on Mon, 01 Mar 2010 UTC via a PROTON-M/DM-2 launch vehicle from the Tyuratam Missile And Space Complex (TTMTR). Payload-class satellites include a variety of spacecraft equipped with specific instruments for various scientific and technological missions. These include communications satellites like Starlink; space stations such as the ISS; scientific satellites like the Hubble; Earth observation satellites from companies like Planet Labs, Umbra, and HawkEye 360; GPS; miniature CubeSats for education and research; and military/defense satellites.

Loading next visibility...
Identifier
36400, 2010-007A
Orbit
MEO
Last TLE update
2 days ago
Origin
Manufacturer
Resehetnev ISS
Mission
Non-operational Defense Navigation
Bus & Motor
URAGAN, Unknown motor
Mass
1,450 kg wet, ~1,200 kg dry
Launch date (UTC)
2010-03-01 (15 years ago)
Launch vehicle
PROTON-M/DM-2
Launch site
Tyuratam Missile And Space Complex (TTMTR)
Object type
Payload
Rocket body
Debris
Shape & HBR
Cyl + 1 Ant + 2 Pan, 7.8 m
Radar Cross Section
8.467 m², Large (>1 m²)

Expand to show TLE details & history

TLE from 2 days ago
0 COSMOS 2459 (GLONASS)
1 36400U 10007A   25184.80419565 -.00000076  00000-0  00000-0 0  9993
2 36400  65.6374 326.3428 0024864 346.2274 353.5327  2.13116922119394
Epoch: 2025-07-03T19:18Z
TLE epoch observation values (Epoch: 2025-07-03T19:18:02.504Z)
Latitude
-18.42353°
Longitude
106.09179°
Altitude
19,070.638 km
Speed
3.963 km/s
True Right ascension
21h 10m 40s
True Declination
-18° 23' 41"
Sunlit
Object was in daylight at epoch
Visualization orbit readout
Latitude
-1.27075°
Longitude
114.09706°
Altitude
19,067.52 km
Speed
3.963 km/s
Apparent Right ascension
22h 26m 57s
Apparent Declination
-10° 21' 32"
Sunlit
Object is in daylight
Visualization observer readout
Local Sidereal Time
16:08:53
Azimuth
95.138° ESE
Elevation
-10.069°
Doppler factor
1
Orbital elements
Apogee altitude
19,191.709 km
Perigee altitude
19,064.871 km
Semi-major axis
25,506.427 km
Eccentricity
0.00249
Inclination
65.6374°
RAAN
326.3428°
Arg. of periapsis
346.2274°
True anomaly
Unknown
Mean anomaly
353.5327°
Eccentric anomaly
Unknown
Mean motion
0.53281 °/min
Orbital period
675.67 mins
BSTAR
0
Loading maneuver chart data...
Loading SW <> Apogee altitude chart data...
Loading historical data...
Loading historical data...
Loading historical data...
Loading historical data...
Loading historical data...
Loading historical data...
Loading historical data...

COSMOS 2459 (GLONASS) Visibility forecast

Observer location: undefined°, undefined°

Span
Click to sort rows by Start time (UTC) header in descending order
Start Az.
Max El. time (UTC)
Max El. Az.
Max El.
End time (UTC)
End Az.
93 mins2025-07-06 05:19:44.932Z68.393° E2025-07-06 06:07:44.932Z44.55° NE15.471°2025-07-06 06:52:44.932Z23.431° NE
315 mins2025-07-06 16:44:44.932Z296.892° NW2025-07-06 19:39:44.932Z70.846° E44.717°2025-07-06 21:59:44.932Z171.64° S
|